Photometre #851[NE_1.6_Dp] Lerwick_MO AOT

File : 20210611_851.hum

11/06/2021,04:23:11,TEMP=11.7,BA=5.64,STAT.A,ExtBa=12.30
11/06/2021,04:36:56,TEMP=12.1,BA=5.64,STAT.A,ExtBa=12.30
11/06/2021,04:50:41,TEMP=12.4,BA=5.64,STAT.A,ExtBa=12.30
11/06/2021,05:07:44,TEMP=12.5,BA=5.64,STAT.A,ExtBa=12.20
11/06/2021,05:09:55,TEMP=12.9,BA=5.64,STAT.A,ExtBa=12.20
11/06/2021,05:19:45,TEMP=12.6,BA=5.60,STAT.B,ExtBa=12.20
11/06/2021,05:26:26,TEMP=12.6,BA=5.64,STAT.A,ExtBa=12.20
11/06/2021,05:33:50,TEMP=12.4,BA=5.64,STAT.A,ExtBa=12.20
11/06/2021,05:42:03,TEMP=12.2,BA=5.64,STAT.A,ExtBa=12.20
11/06/2021,05:51:17,TEMP=12.0,BA=5.64,STAT.A,ExtBa=12.20
11/06/2021,06:01:42,TEMP=12.0,BA=5.64,STAT.C,ExtBa=12.20
11/06/2021,06:13:37,TEMP=12.1,BA=5.64,STAT.A,ExtBa=12.20
11/06/2021,06:27:23,TEMP=12.3,BA=5.64,STAT.A,ExtBa=12.20
11/06/2021,06:43:34,TEMP=12.5,BA=5.64,STAT.A,ExtBa=12.20
11/06/2021,07:02:58,TEMP=12.9,BA=5.64,STAT.A,ExtBa=12.30
11/06/2021,07:26:48,TEMP=12.4,BA=5.64,STAT.B,ExtBa=12.30
11/06/2021,08:15:54,TEMP=12.7,BA=5.64,STAT.h
11/06/2021,08:34:35,TEMP=11.9,BA=5.64,STAT.D,ExtBa=12.30
11/06/2021,08:49:36,TEMP=12.0,BA=5.64,STAT.D,ExtBa=12.30
11/06/2021,09:04:37,TEMP=12.1,BA=5.64,STAT.F,ExtBa=12.30
11/06/2021,09:19:36,TEMP=12.1,BA=5.64,STAT.D,ExtBa=12.30
11/06/2021,09:34:36,TEMP=12.2,BA=5.64,STAT.D,ExtBa=12.30
11/06/2021,09:49:36,TEMP=12.0,BA=5.64,STAT.D,ExtBa=12.30
11/06/2021,10:04:37,TEMP=12.0,BA=5.64,STAT.F,ExtBa=12.30
11/06/2021,10:19:36,TEMP=12.1,BA=5.64,STAT.D,ExtBa=12.30
11/06/2021,10:34:36,TEMP=12.2,BA=5.64,STAT.D,ExtBa=12.30
11/06/2021,10:49:36,TEMP=11.9,BA=5.64,STAT.D,ExtBa=12.30
11/06/2021,11:04:38,TEMP=12.3,BA=5.64,STAT.F,ExtBa=12.30
11/06/2021,11:19:36,TEMP=13.0,BA=5.64,STAT.D,ExtBa=12.30
11/06/2021,11:34:36,TEMP=12.7,BA=5.64,STAT.D,ExtBa=12.30
11/06/2021,11:49:36,TEMP=12.9,BA=5.64,STAT.D,ExtBa=12.30
11/06/2021,12:04:38,TEMP=12.6,BA=5.64,STAT.F,ExtBa=12.30
11/06/2021,12:19:36,TEMP=12.4,BA=5.64,STAT.D,ExtBa=12.30
11/06/2021,12:34:36,TEMP=11.4,BA=5.64,STAT.D,ExtBa=12.30
11/06/2021,12:49:36,TEMP=10.3,BA=5.64,STAT.D,ExtBa=12.30
11/06/2021,13:04:38,TEMP=10.5,BA=5.64,STAT.F,ExtBa=12.30
11/06/2021,13:19:36,TEMP=11.7,BA=5.64,STAT.D,ExtBa=12.30
11/06/2021,13:34:36,TEMP=12.9,BA=5.64,STAT.D,ExtBa=12.30
11/06/2021,13:49:36,TEMP=13.4,BA=5.64,STAT.D,ExtBa=12.30
11/06/2021,14:04:37,TEMP=14.0,BA=5.64,STAT.F,ExtBa=12.20
11/06/2021,14:30:08,TEMP=14.1,BA=5.60,STAT.D,ExtBa=12.10
11/06/2021,14:34:36,TEMP=13.4,BA=5.60,STAT.D,ExtBa=12.10
11/06/2021,14:49:36,TEMP=13.7,BA=5.64,STAT.D,ExtBa=12.20
11/06/2021,15:04:37,TEMP=13.9,BA=5.64,STAT.F,ExtBa=12.20
11/06/2021,15:28:47,TEMP=14.5,BA=5.60,STAT.b=19.0
11/06/2021,15:29:06,TEMP=14.5,BA=5.60,STAT.b=19.0
11/06/2021,15:34:35,TEMP=14.0,BA=5.60,STAT.D,ExtBa=12.10
11/06/2021,15:52:55,TEMP=14.1,BA=5.64,STAT.B,ExtBa=12.10
11/06/2021,16:42:26,TEMP=13.9,BA=5.64,STAT.B,ExtBa=12.20
11/06/2021,17:06:17,TEMP=12.3,BA=5.64,STAT.A,ExtBa=12.10
11/06/2021,17:25:40,TEMP=12.0,BA=5.64,STAT.A,ExtBa=12.20
11/06/2021,17:41:49,TEMP=11.8,BA=5.64,STAT.A,ExtBa=12.20
11/06/2021,17:55:35,TEMP=11.6,BA=5.64,STAT.A,ExtBa=12.20
11/06/2021,18:07:30,TEMP=11.4,BA=5.64,STAT.C,ExtBa=12.20
11/06/2021,18:17:55,TEMP=11.4,BA=5.64,STAT.A,ExtBa=12.20
11/06/2021,18:27:09,TEMP=11.3,BA=5.64,STAT.A,ExtBa=12.20
11/06/2021,18:35:22,TEMP=11.2,BA=5.60,STAT.A,ExtBa=12.20
11/06/2021,18:42:46,TEMP=11.3,BA=5.64,STAT.A,ExtBa=12.20
11/06/2021,18:49:27,TEMP=11.3,BA=5.64,STAT.B,ExtBa=12.20
11/06/2021,19:03:43,TEMP=11.1,BA=5.64,STAT.A,ExtBa=12.20
11/06/2021,19:15:18,TEMP=11.0,BA=5.64,STAT.A,ExtBa=12.20
11/06/2021,19:24:55,TEMP=10.9,BA=5.64,STAT.A,ExtBa=12.20
11/06/2021,19:33:02,TEMP=10.9,BA=5.64,STAT.A,ExtBa=12.20
11/06/2021,19:40:00,TEMP=10.9,BA=5.64,STAT.A,ExtBa=12.20
11/06/2021,19:46:03,TEMP=10.9,BA=5.64,STAT.A,ExtBa=12.20